Location: Orange
(33.2833°S, 149.1000°E)
Time: 19:43:41
(UTC+11:00)

Envisat - Pass Details

Date: 06 October 2022
Orbit: 763 x 765 km, 98.2° (Epoch: 01 December)

Event Time Altitude Azimuth Distance (km) Brightness Sun altitude
Rises 03:28:46 0° 53° (NE) 3,224 6.4 -36.8°
Reaches altitude 10° 03:31:42 10° 71° (ENE) 2,306 5.8 -36.3°
Maximum altitude 03:35:07 18° 113° (ESE) 1,801 5.5 -35.7°
Drops below altitude 10° 03:38:33 10° 155° (SSE) 2,325 6.1 -35.1°
Sets 03:41:31 0° 173° (S) 3,259 6.8 -34.6°
